QPF
0.00 0.02 0.04 0.05 0.03 0.02 0.02 0.02 0.02 0.01 0.03 0.06 0.11 0.07 0.02 0.01 0.00 0.00 0.00 0.00 0.00 0.00 0.00 0.00 0.00 0.00 0.01 0.01 0.02 0.02 0.03 0.04 0.06 0.06 0.07 0.07 0.05 0.04 0.03 0.02 0.02 0.02 0.01 0.01
0.01 0.02 0.01 0.02 0.02 0.01 0.01 0.01 0.01 0.01 0.02 0.04 0.08 0.08 0.05 0.03 0.01 0.00 0.00 0.00 0.00 0.00 0.00 0.00 0.00 0.00 0.01 0.01 0.02 0.02 0.02 0.02 0.02 0.03 0.04 0.03 0.03 0.03 0.03 0.02 0.02 0.02 0.01 0.02
0.02 0.02 0.02 0.01 0.01 0.00 0.00 0.00 0.00 0.00 0.01 0.02 0.04 0.05 0.02 0.01 0.00 0.00 0.00 0.00 0.00 0.00 0.01 0.01 0.01 0.01 0.01 0.02 0.02 0.02 0.02 0.01 0.01 0.02 0.04 0.03 0.03 0.04 0.04 0.04 0.04 0.03 0.02 0.02
0.02 0.04 0.06 0.02 0.01 0.01 0.01 0.01 0.01 0.00 0.01 0.02 0.03 0.03 0.01 0.00 0.00 0.00 0.00 0.01 0.01 0.01 0.03 0.06 0.04 0.03 0.03 0.04 0.05 0.03 0.03 0.03 0.03 0.05 0.06 0.07 0.07 0.05 0.05 0.05 0.04 0.02 0.01 0.01
0.05 0.07 0.06 0.04 0.03 0.02 0.01 0.01 0.01 0.02 0.03 0.01 0.00 0.01 0.02 0.01 0.00 0.00 0.00 0.01 0.02 0.02 0.02 0.04 0.04 0.02 0.03 0.04 0.05 0.08 0.11 0.11 0.09 0.08 0.10 0.11 0.11 0.10 0.09 0.08 0.05 0.03 0.02 0.02
0.07 0.08 0.10 0.09 0.09 0.05 0.04 0.07 0.04 0.05 0.02 0.00 0.00 0.04 0.05 0.01 0.01 0.01 0.01 0.01 0.02 0.03 0.03 0.04 0.05 0.03 0.05 0.06 0.07 0.09 0.11 0.14 0.15 0.15 0.17 0.16 0.15 0.14 0.12 0.11 0.08 0.06 0.05 0.04
0.07 0.08 0.08 0.07 0.07 0.06 0.09 0.14 0.03 0.03 0.02 0.01 0.01 0.02 0.02 0.01 0.01 0.01 0.01 0.01 0.02 0.02 0.03 0.04 0.04 0.05 0.07 0.08 0.06 0.06 0.07 0.09 0.10 0.11 0.12 0.13 0.14 0.14 0.13 0.11 0.09 0.08 0.07 0.07
0.08 0.10 0.11 0.06 0.07 0.10 0.14 0.07 0.02 0.02 0.02 0.02 0.02 0.01 0.01 0.01 0.00 0.01 0.01 0.02 0.02 0.02 0.03 0.03 0.04 0.04 0.05 0.07 0.06 0.05 0.05 0.05 0.06 0.06 0.08 0.08 0.08 0.09 0.10 0.12 0.11 0.09 0.08 0.06
0.12 0.12 0.09 0.05 0.07 0.06 0.05 0.05 0.03 0.01 0.01 0.02 0.01 0.01 0.01 0.00 0.00 0.00 0.01 0.01 0.01 0.02 0.03 0.04 0.04 0.04 0.05 0.05 0.04 0.04 0.05 0.05 0.06 0.05 0.05 0.06 0.07 0.07 0.08 0.10 0.11 0.11 0.11 0.11
0.16 0.14 0.07 0.04 0.05 0.05 0.03 0.03 0.01 0.01 0.01 0.01 0.01 0.01 0.02 0.01 0.00 0.00 0.00 0.00 0.01 0.02 0.03 0.03 0.03 0.03 0.04 0.05 0.05 0.05 0.05 0.06 0.05 0.05 0.05 0.05 0.05 0.05 0.06 0.08 0.08 0.08 0.08 0.09
0.14 0.15 0.08 0.04 0.05 0.07 0.05 0.03 0.01 0.01 0.00 0.00 0.00 0.01 0.02 0.01 0.01 0.01 0.00 0.00 0.00 0.01 0.01 0.01 0.01 0.01 0.02 0.03 0.04 0.04 0.05 0.05 0.05 0.05 0.06 0.06 0.05 0.04 0.04 0.04 0.04 0.05 0.05 0.05
0.13 0.11 0.09 0.09 0.05 0.05 0.03 0.01 0.02 0.01 0.01 0.01 0.00 0.00 0.00 0.01 0.01 0.01 0.01 0.00 0.00 0.00 0.00 0.00 0.00 0.01 0.01 0.01 0.02 0.03 0.03 0.03 0.03 0.03 0.03 0.03 0.03 0.03 0.03 0.03 0.03 0.03 0.02 0.02
0.04 0.02 0.02 0.02 0.02 0.02 0.03 0.03 0.03 0.02 0.02 0.02 0.03 0.02 0.01 0.01 0.01 0.00 0.01 0.01 0.00 0.01 0.01 0.01 0.01 0.01 0.01 0.01 0.01 0.01 0.02 0.02 0.02 0.02 0.02 0.01 0.01 0.01 0.01 0.02 0.02 0.02 0.01 0.01
0.02 0.01 0.02 0.03 0.02 0.02 0.03 0.03 0.03 0.03 0.02 0.02 0.03 0.03 0.02 0.02 0.02 0.01 0.01 0.01 0.01 0.01 0.01 0.01 0.01 0.01 0.01 0.01 0.01 0.01 0.01 0.02 0.02 0.02 0.02 0.02 0.01 0.01 0.01 0.01 0.01 0.01 0.01 0.01
0.01 0.01 0.02 0.03 0.03 0.03 0.02 0.02 0.03 0.03 0.02 0.02 0.01 0.02 0.02 0.02 0.02 0.01 0.01 0.01 0.01 0.01 0.01 0.01 0.01 0.01 0.00 0.00 0.00 0.00 0.00 0.01 0.00 0.01 0.01 0.00 0.00 0.00 0.00 0.00 0.00 0.00 0.00 0.00
0.02 0.03 0.03 0.03 0.03 0.02 0.01 0.02 0.03 0.03 0.02 0.01 0.01 0.01 0.01 0.01 0.01 0.01 0.01 0.01 0.01 0.01 0.00 0.00 0.00 0.00 0.00 0.00 0.00 0.00 0.00 0.00 0.00 0.00 0.00 0.00 0.00 0.00 0.00 0.00 0.00 0.00 0.00 0.00
0.04 0.05 0.05 0.04 0.03 0.02 0.01 0.02 0.02 0.01 0.01 0.01 0.01 0.01 0.01 0.01 0.01 0.01 0.00 0.00 0.00 0.00 0.00 0.00 0.01 0.00 0.00 0.00 0.00 0.00 0.00 0.00 0.00 0.00 0.00 0.01 0.00 0.00 0.00 0.00 0.00 0.00 0.00 0.00
0.03 0.03 0.03 0.03 0.03 0.03 0.02 0.01 0.00 0.00 0.00 0.01 0.01 0.01 0.02 0.02 0.01 0.01 0.00 0.00 0.00 0.01 0.01 0.01 0.00 0.00 0.00 0.00 0.00 0.00 0.00 0.00 0.00 0.00 0.00 0.00 0.00 0.00 0.00 0.00 0.00 0.00 0.00 0.00
0.01 0.01 0.02 0.01 0.02 0.02 0.01 0.01 0.01 0.00 0.00 0.01 0.02 0.02 0.02 0.02 0.01 0.00 0.00 0.01 0.01 0.01 0.01 0.00 0.00 0.00 0.00 0.00 0.00 0.00 0.00 0.00 0.00 0.00 0.00 0.00 0.00 0.00 0.00 0.00 0.00 0.00 0.01 0.00
0.00 0.01 0.01 0.01 0.02 0.01 0.01 0.01 0.01 0.01 0.01 0.01 0.02 0.01 0.01 0.01 0.01 0.00 0.00 0.01 0.01 0.00 0.00 0.00 0.00 0.00 0.00 0.00 0.00 0.00 0.00 0.00 0.00 0.00 0.00 0.00 0.00 0.00 0.00 0.01 0.01 0.01 0.01 0.01
0.01 0.01 0.01 0.01 0.01 0.01 0.01 0.00 0.00 0.00 0.00 0.00 0.00 0.00 0.00 0.00 0.00 0.00 0.01 0.01 0.01 0.00 0.00 0.00 0.00 0.00 0.00 0.00 0.00 0.00 0.00 0.00 0.00 0.00 0.00 0.00 0.01 0.01 0.01 0.02 0.02 0.01 0.02 0.02
0.01 0.01 0.00 0.00 0.00 0.00 0.00 0.00 0.00 0.00 0.00 0.00 0.00 0.00 0.00 0.00 0.00 0.01 0.01 0.01 0.01 0.00 0.00 0.00 0.00 0.00 0.00 0.00 0.00 0.00 0.00 0.00 0.00 0.01 0.01 0.01 0.01 0.01 0.01 0.01 0.01 0.01 0.02 0.03
0.00 0.00 0.00 0.00 0.01 0.01 0.01 0.00 0.00 0.00 0.00 0.00 0.00 0.00 0.00 0.00 0.01 0.01 0.01 0.01 0.00 0.00 0.00 0.00 0.00 0.00 0.00 0.00 0.00 0.00 0.01 0.01 0.01 0.01 0.01 0.01 0.01 0.01 0.01 0.01 0.01 0.02 0.02 0.02
0.01 0.01 0.00 0.00 0.00 0.01 0.01 0.01 0.01 0.01 0.01 0.00 0.00 0.00 0.00 0.01 0.01 0.01 0.00 0.00 0.00 0.00 0.00 0.01 0.00 0.00 0.00 0.01 0.01 0.02 0.02 0.01 0.01 0.01 0.01 0.01 0.01 0.01 0.02 0.02 0.02 0.02 0.02 0.03
0.01 0.01 0.01 0.01 0.01 0.01 0.01 0.01 0.01 0.01 0.01 0.01 0.01 0.01 0.01 0.01 0.01 0.01 0.01 0.01 0.02 0.01 0.02 0.02 0.01 0.01 0.01 0.02 0.03 0.04 0.03 0.02 0.01 0.01 0.01 0.02 0.02 0.01 0.02 0.02 0.03 0.03 0.04 0.04
0.01 0.01 0.01 0.01 0.01 0.01 0.01 0.01 0.02 0.02 0.03 0.04 0.04 0.03 0.02 0.02 0.02 0.03 0.04 0.05 0.04 0.03 0.03 0.04 0.03 0.02 0.02 0.02 0.03 0.03 0.02 0.02 0.01 0.01 0.01 0.02 0.02 0.02 0.03 0.03 0.04 0.03 0.03 0.03
0.01 0.01 0.01 0.01 0.01 0.01 0.01 0.02 0.02 0.03 0.04 0.04 0.03 0.02 0.02 0.03 0.04 0.04 0.05 0.05 0.05 0.04 0.03 0.03 0.02 0.02 0.02 0.02 0.02 0.01 0.01 0.01 0.01 0.01 0.02 0.02 0.02 0.02 0.02 0.03 0.03 0.03 0.03 0.02
MSLP
1005.06 1005.36 1005.62 1005.81 1005.95 1006.01 1006.01 1005.94 1005.82 1005.67 1005.50 1005.33 1005.19 1005.08 1005.03 1005.01 1005.04 1005.11 1005.19 1005.30 1005.44 1005.61 1005.83 1006.12 1006.49 1006.94 1007.47 1008.06 1008.68 1009.29 1009.86 1010.38 1010.84 1011.22 1011.56 1011.87 1012.18 1012.52 1012.90 1013.31 1013.75 1014.20 1014.63 1015.03
1005.02 1005.28 1005.44 1005.49 1005.45 1005.33 1005.17 1005.00 1004.86 1004.76 1004.73 1004.78 1004.89 1005.05 1005.23 1005.39 1005.52 1005.60 1005.62 1005.61 1005.58 1005.58 1005.64 1005.79 1006.05 1006.44 1006.93 1007.51 1008.12 1008.73 1009.30 1009.79 1010.21 1010.56 1010.85 1011.12 1011.41 1011.73 1012.10 1012.52 1012.97 1013.44 1013.90 1014.32
1005.11 1005.33 1005.41 1005.35 1005.17 1004.90 1004.62 1004.36 1004.20 1004.16 1004.25 1004.48 1004.82 1005.21 1005.59 1005.93 1006.17 1006.29 1006.30 1006.20 1006.06 1005.92 1005.84 1005.86 1006.01 1006.31 1006.74 1007.26 1007.82 1008.38 1008.89 1009.32 1009.67 1009.94 1010.16 1010.37 1010.60 1010.88 1011.23 1011.65 1012.11 1012.59 1013.07 1013.51
1005.38 1005.55 1005.57 1005.42 1005.13 1004.76 1004.37 1004.05 1003.86 1003.85 1004.04 1004.40 1004.90 1005.48 1006.05 1006.54 1006.90 1007.10 1007.12 1007.01 1006.81 1006.58 1006.40 1006.32 1006.38 1006.58 1006.91 1007.35 1007.82 1008.28 1008.69 1009.02 1009.26 1009.43 1009.56 1009.68 1009.84 1010.08 1010.39 1010.78 1011.24 1011.73 1012.21 1012.67
1005.79 1005.91 1005.87 1005.65 1005.29 1004.83 1004.37 1004.00 1003.79 1003.78 1004.01 1004.46 1005.08 1005.79 1006.50 1007.13 1007.60 1007.89 1007.98 1007.90 1007.70 1007.45 1007.23 1007.09 1007.07 1007.18 1007.42 1007.75 1008.11 1008.45 1008.74 1008.94 1009.06 1009.11 1009.13 1009.16 1009.25 1009.41 1009.68 1010.04 1010.48 1010.96 1011.45 1011.91
1006.26 1006.32 1006.22 1005.95 1005.54 1005.03 1004.53 1004.12 1003.88 1003.87 1004.11 1004.60 1005.28 1006.07 1006.87 1007.61 1008.19 1008.58 1008.76 1008.76 1008.61 1008.40 1008.18 1008.02 1007.96 1008.02 1008.17 1008.39 1008.64 1008.85 1009.01 1009.09 1009.09 1009.03 1008.95 1008.89 1008.90 1009.00 1009.22 1009.54 1009.95 1010.41 1010.89 1011.34
1006.65 1006.65 1006.51 1006.20 1005.77 1005.25 1004.74 1004.31 1004.06 1004.04 1004.29 1004.77 1005.47 1006.30 1007.16 1007.96 1008.63 1009.12 1009.40 1009.50 1009.44 1009.30 1009.14 1009.01 1008.94 1008.96 1009.05 1009.19 1009.34 1009.45 1009.50 1009.46 1009.36 1009.21 1009.04 1008.91 1008.86 1008.91 1009.08 1009.36 1009.73 1010.17 1010.62 1011.06
1006.83 1006.78 1006.61 1006.31 1005.89 1005.41 1004.93 1004.54 1004.30 1004.29 1004.53 1005.01 1005.69 1006.52 1007.39 1008.22 1008.95 1009.51 1009.89 1010.09 1010.15 1010.10 1010.01 1009.93 1009.89 1009.90 1009.96 1010.05 1010.12 1010.15 1010.12 1010.01 1009.84 1009.62 1009.40 1009.22 1009.12 1009.13 1009.26 1009.51 1009.85 1010.25 1010.67 1011.09
1006.74 1006.66 1006.49 1006.24 1005.89 1005.49 1005.10 1004.79 1004.62 1004.64 1004.88 1005.35 1006.01 1006.80 1007.65 1008.48 1009.23 1009.84 1010.29 1010.58 1010.73 1010.78 1010.77 1010.76 1010.75 1010.78 1010.83 1010.88 1010.91 1010.89 1010.81 1010.66 1010.44 1010.20 1009.95 1009.75 1009.62 1009.61 1009.71 1009.92 1010.22 1010.59 1010.98 1011.36
1006.40 1006.32 1006.20 1006.03 1005.81 1005.55 1005.31 1005.12 1005.06 1005.15 1005.43 1005.89 1006.52 1007.27 1008.07 1008.86 1009.58 1010.20 1010.68 1011.02 1011.24 1011.36 1011.42 1011.46 1011.50 1011.55 1011.59 1011.63 1011.63 1011.59 1011.48 1011.31 1011.08 1010.83 1010.58 1010.37 1010.24 1010.20 1010.28 1010.46 1010.72 1011.05 1011.40 1011.74
1005.92 1005.88 1005.85 1005.81 1005.75 1005.68 1005.63 1005.62 1005.70 1005.90 1006.23 1006.70 1007.30 1007.99 1008.72 1009.44 1010.11 1010.69 1011.15 1011.50 1011.75 1011.91 1012.01 1012.08 1012.14 1012.19 1012.23 1012.26 1012.24 1012.17 1012.05 1011.87 1011.64 1011.39 1011.15 1010.95 1010.81 1010.77 1010.82 1010.96 1011.19 1011.47 1011.77 1012.06
1005.50 1005.53 1005.62 1005.73 1005.87 1006.01 1006.17 1006.36 1006.61 1006.92 1007.33 1007.82 1008.39 1009.01 1009.65 1010.28 1010.86 1011.36 1011.78 1012.09 1012.32 1012.48 1012.58 1012.65 1012.70 1012.73 1012.75 1012.74 1012.70 1012.60 1012.46 1012.27 1012.04 1011.79 1011.56 1011.36 1011.21 1011.15 1011.18 1011.28 1011.46 1011.69 1011.93 1012.17
1005.32 1005.44 1005.65 1005.93 1006.26 1006.61 1006.98 1007.36 1007.77 1008.21 1008.68 1009.18 1009.72 1010.27 1010.82 1011.34 1011.81 1012.21 1012.54 1012.79 1012.97 1013.08 1013.15 1013.19 1013.20 1013.19 1013.15 1013.09 1013.00 1012.87 1012.69 1012.47 1012.23 1011.98 1011.74 1011.53 1011.38 1011.29 1011.28 1011.34 1011.47 1011.63 1011.81 1011.99
1005.53 1005.74 1006.07 1006.49 1006.98 1007.51 1008.05 1008.59 1009.13 1009.65 1010.17 1010.68 1011.17 1011.65 1012.09 1012.50 1012.85 1013.15 1013.38 1013.54 1013.65 1013.70 1013.71 1013.69 1013.64 1013.56 1013.46 1013.33 1013.17 1012.98 1012.75 1012.50 1012.23 1011.96 1011.71 1011.49 1011.32 1011.21 1011.16 1011.17 1011.23 1011.32 1011.43 1011.54
1006.18 1006.47 1006.89 1007.41 1008.00 1008.64 1009.30 1009.94 1010.55 1011.13 1011.66 1012.15 1012.58 1012.97 1013.32 1013.61 1013.85 1014.04 1014.18 1014.26 1014.29 1014.28 1014.22 1014.13 1014.01 1013.86 1013.68 1013.48 1013.24 1012.99 1012.71 1012.41 1012.11 1011.82 1011.55 1011.32 1011.13 1010.99 1010.91 1010.87 1010.87 1010.89 1010.93 1010.95
1007.25 1007.57 1008.03 1008.59 1009.23 1009.91 1010.60 1011.28 1011.90 1012.47 1012.98 1013.41 1013.78 1014.08 1014.33 1014.52 1014.67 1014.77 1014.82 1014.84 1014.81 1014.74 1014.63 1014.49 1014.31 1014.09 1013.85 1013.57 1013.28 1012.96 1012.64 1012.31 1011.98 1011.68 1011.40 1011.17 1010.97 1010.81 1010.69 1010.61 1010.56 1010.51 1010.47 1010.41
1008.59 1008.91 1009.35 1009.89 1010.51 1011.16 1011.83 1012.46 1013.04 1013.55 1013.99 1014.35 1014.63 1014.85 1015.01 1015.12 1015.19 1015.23 1015.23 1015.21 1015.15 1015.05 1014.91 1014.74 1014.52 1014.27 1013.99 1013.67 1013.33 1012.98 1012.63 1012.29 1011.96 1011.67 1011.40 1011.17 1010.98 1010.83 1010.69 1010.58 1010.48 1010.37 1010.25 1010.11
1010.03 1010.32 1010.70 1011.17 1011.70 1012.27 1012.84 1013.38 1013.87 1014.29 1014.64 1014.90 1015.09 1015.23 1015.31 1015.36 1015.39 1015.39 1015.38 1015.35 1015.29 1015.19 1015.07 1014.90 1014.69 1014.43 1014.14 1013.82 1013.47 1013.12 1012.78 1012.45 1012.15 1011.88 1011.65 1011.46 1011.30 1011.16 1011.03 1010.90 1010.76 1010.60 1010.40 1010.18
1011.39 1011.61 1011.90 1012.27 1012.69 1013.14 1013.58 1014.00 1014.37 1014.68 1014.92 1015.09 1015.19 1015.26 1015.29 1015.30 1015.31 1015.31 1015.31 1015.29 1015.27 1015.22 1015.13 1015.01 1014.83 1014.61 1014.36 1014.07 1013.76 1013.44 1013.14 1012.86 1012.61 1012.39 1012.22 1012.07 1011.95 1011.85 1011.73 1011.60 1011.44 1011.23 1010.97 1010.66
1012.53 1012.66 1012.86 1013.12 1013.42 1013.74 1014.06 1014.35 1014.60 1014.79 1014.93 1015.01 1015.05 1015.06 1015.06 1015.06 1015.07 1015.08 1015.12 1015.15 1015.18 1015.20 1015.18 1015.13 1015.02 1014.87 1014.68 1014.45 1014.21 1013.96 1013.71 1013.50 1013.31 1013.16 1013.05 1012.96 1012.89 1012.82 1012.73 1012.60 1012.42 1012.18 1011.87 1011.48
1013.38 1013.44 1013.55 1013.71 1013.90 1014.11 1014.32 1014.50 1014.65 1014.75 1014.81 1014.83 1014.82 1014.80 1014.78 1014.78 1014.80 1014.86 1014.94 1015.03 1015.13 1015.23 1015.29 1015.32 1015.30 1015.24 1015.13 1014.98 1014.81 1014.64 1014.47 1014.32 1014.19 1014.11 1014.05 1014.01 1013.99 1013.94 1013.87 1013.75 1013.55 1013.28 1012.92 1012.47
1013.96 1013.96 1014.01 1014.09 1014.20 1014.33 1014.46 1014.56 1014.64 1014.68 1014.69 1014.67 1014.64 1014.60 1014.59 1014.60 1014.65 1014.74 1014.87 1015.03 1015.20 1015.37 1015.52 1015.63 1015.71 1015.73 1015.70 1015.63 1015.54 1015.43 1015.32 1015.23 1015.15 1015.11 1015.09 1015.08 1015.07 1015.04 1014.97 1014.84 1014.63 1014.34 1013.94 1013.45
1014.31 1014.28 1014.29 1014.33 1014.40 1014.48 1014.55 1014.62 1014.66 1014.67 1014.66 1014.63 1014.59 1014.57 1014.56 1014.60 1014.69 1014.82 1014.99 1015.21 1015.44 1015.67 1015.89 1016.07 1016.22 1016.31 1016.36 1016.36 1016.32 1016.26 1016.19 1016.13 1016.08 1016.05 1016.03 1016.02 1016.01 1015.96 1015.88 1015.73 1015.51 1015.19 1014.76 1014.24
1014.51 1014.47 1014.47 1014.50 1014.55 1014.61 1014.67 1014.72 1014.75 1014.77 1014.76 1014.74 1014.72 1014.72 1014.74 1014.81 1014.92 1015.09 1015.30 1015.55 1015.83 1016.11 1016.38 1016.62 1016.82 1016.96 1017.06 1017.10 1017.09 1017.06 1017.01 1016.95 1016.89 1016.84 1016.79 1016.75 1016.70 1016.63 1016.51 1016.34 1016.09 1015.75 1015.31 1014.78
1014.63 1014.61 1014.61 1014.64 1014.69 1014.75 1014.82 1014.88 1014.93 1014.96 1014.98 1014.99 1015.00 1015.03 1015.09 1015.19 1015.33 1015.53 1015.76 1016.04 1016.34 1016.65 1016.95 1017.21 1017.44 1017.61 1017.73 1017.79 1017.80 1017.77 1017.70 1017.62 1017.53 1017.44 1017.35 1017.26 1017.15 1017.03 1016.87 1016.66 1016.38 1016.03 1015.59 1015.06
1014.73 1014.72 1014.73 1014.77 1014.83 1014.91 1014.99 1015.07 1015.14 1015.21 1015.26 1015.31 1015.36 1015.43 1015.53 1015.66 1015.84 1016.05 1016.31 1016.60 1016.91 1017.23 1017.53 1017.81 1018.04 1018.22 1018.34 1018.40 1018.41 1018.36 1018.28 1018.16 1018.03 1017.89 1017.74 1017.59 1017.42 1017.24 1017.04 1016.79 1016.49 1016.13 1015.70 1015.19
1014.81 1014.81 1014.84 1014.88 1014.95 1015.04 1015.14 1015.24 1015.35 1015.45 1015.54 1015.64 1015.74 1015.86 1015.99 1016.16 1016.36 1016.60 1016.86 1017.16 1017.47 1017.78 1018.07 1018.34 1018.57 1018.75 1018.86 1018.92 1018.91 1018.85 1018.74 1018.60 1018.43 1018.24 1018.05 1017.84 1017.63 1017.40 1017.16 1016.88 1016.57 1016.21 1015.78 1015.30
Thickness
5785 5785 5774 5764 5763 5767 5767 5771 5767 5769 5767 5768 5772 5775 5781 5787 5789 5788 5786 5786 5785 5782 5780 5777 5774 5770 5767 5764 5761 5758 5752 5747 5743 5741 5738 5734 5730 5728 5726 5723 5720 5717 5715 5712
5774 5782 5778 5771 5775 5775 5776 5780 5780 5781 5774 5780 5778 5776 5777 5781 5781 5779 5781 5782 5782 5780 5779 5776 5773 5769 5766 5763 5761 5757 5752 5747 5744 5740 5736 5732 5729 5726 5723 5719 5717 5714 5711 5708
5758 5772 5768 5758 5773 5776 5779 5787 5785 5773 5774 5779 5771 5766 5766 5771 5774 5775 5775 5775 5773 5773 5774 5773 5772 5770 5766 5762 5760 5755 5751 5747 5743 5739 5734 5730 5727 5722 5719 5715 5713 5710 5707 5704
5755 5750 5729 5764 5788 5784 5779 5783 5786 5779 5778 5774 5769 5766 5767 5768 5767 5766 5767 5767 5768 5769 5768 5767 5767 5767 5765 5760 5755 5751 5747 5744 5741 5736 5731 5727 5722 5718 5715 5711 5708 5705 5702 5700
5743 5738 5743 5758 5768 5769 5757 5762 5776 5774 5770 5767 5766 5760 5754 5759 5759 5757 5757 5758 5759 5761 5762 5760 5759 5760 5757 5753 5749 5744 5738 5734 5734 5730 5724 5719 5714 5711 5709 5705 5701 5699 5697 5694
5736 5727 5721 5736 5752 5764 5752 5737 5762 5766 5762 5761 5759 5739 5732 5745 5747 5747 5748 5749 5749 5750 5750 5748 5748 5749 5745 5739 5736 5732 5729 5727 5725 5721 5716 5711 5707 5704 5702 5698 5694 5692 5690 5689
5730 5725 5729 5738 5749 5751 5724 5724 5751 5757 5754 5751 5744 5737 5734 5736 5735 5735 5734 5735 5735 5734 5731 5731 5734 5734 5728 5724 5721 5721 5720 5718 5715 5711 5707 5703 5699 5696 5693 5690 5686 5684 5683 5682
5723 5717 5710 5736 5738 5728 5727 5743 5748 5748 5747 5741 5736 5732 5728 5724 5722 5721 5719 5718 5718 5716 5714 5715 5716 5716 5711 5707 5707 5708 5706 5704 5702 5700 5698 5694 5690 5687 5683 5679 5675 5674 5672 5671
5707 5707 5719 5730 5728 5733 5738 5737 5740 5742 5740 5735 5727 5720 5716 5712 5709 5707 5706 5704 5703 5701 5698 5698 5698 5698 5693 5692 5694 5693 5691 5689 5687 5686 5684 5681 5679 5676 5673 5670 5666 5663 5661 5659
5696 5704 5716 5722 5729 5732 5735 5732 5736 5735 5731 5725 5716 5711 5705 5701 5698 5695 5693 5691 5689 5686 5683 5681 5681 5681 5679 5678 5678 5678 5676 5675 5673 5672 5670 5667 5666 5665 5661 5657 5654 5652 5650 5647
5689 5701 5710 5713 5719 5723 5724 5726 5723 5721 5717 5711 5705 5698 5693 5688 5685 5683 5681 5679 5676 5673 5669 5667 5666 5665 5664 5664 5664 5662 5661 5660 5660 5658 5657 5655 5652 5650 5648 5645 5643 5639 5638 5636
5686 5699 5702 5702 5712 5714 5712 5711 5708 5704 5700 5698 5693 5687 5682 5677 5674 5671 5668 5665 5662 5659 5656 5654 5652 5651 5651 5650 5650 5648 5647 5646 5646 5646 5645 5643 5642 5640 5638 5635 5632 5629 5626 5623
5697 5703 5704 5703 5705 5705 5702 5698 5695 5691 5687 5682 5679 5675 5670 5664 5661 5659 5656 5653 5649 5647 5644 5642 5641 5639 5639 5638 5637 5635 5633 5633 5633 5634 5633 5632 5631 5629 5627 5624 5621 5618 5615 5612
5697 5697 5691 5691 5691 5692 5690 5687 5683 5678 5673 5669 5664 5661 5657 5652 5649 5646 5643 5641 5639 5636 5634 5631 5629 5628 5627 5626 5624 5622 5622 5622 5621 5621 5620 5620 5619 5617 5616 5613 5611 5609 5605 5600
5687 5687 5682 5681 5680 5678 5676 5673 5666 5661 5657 5653 5650 5646 5643 5638 5635 5633 5631 5630 5627 5624 5622 5619 5617 5615 5615 5614 5612 5611 5610 5610 5610 5609 5608 5608 5607 5606 5604 5601 5598 5596 5594 5589
5675 5674 5671 5667 5663 5661 5658 5654 5649 5644 5642 5639 5636 5632 5630 5627 5624 5622 5620 5618 5614 5610 5608 5607 5604 5603 5602 5601 5599 5599 5599 5598 5597 5597 5597 5596 5595 5592 5589 5586 5583 5580 5576 5572
5659 5655 5653 5650 5647 5645 5642 5640 5636 5633 5630 5627 5623 5621 5619 5616 5612 5610 5608 5607 5604 5600 5597 5595 5592 5591 5591 5589 5587 5587 5587 5587 5585 5585 5584 5582 5579 5576 5572 5569 5565 5562 5558 5553
5652 5648 5644 5640 5637 5633 5629 5627 5624 5621 5618 5616 5614 5611 5608 5605 5601 5600 5598 5596 5593 5589 5587 5584 5581 5580 5579 5576 5573 5572 5573 5573 5573 5572 5570 5567 5563 5560 5557 5552 5548 5544 5541 5538
5638 5635 5631 5628 5625 5621 5618 5615 5612 5611 5609 5606 5603 5600 5598 5595 5592 5591 5589 5585 5581 5577 5575 5574 5569 5568 5566 5563 5560 5560 5560 5560 5559 5557 5555 5551 5548 5545 5541 5536 5532 5527 5523 5520
5623 5621 5618 5615 5613 5610 5606 5604 5603 5601 5599 5597 5594 5590 5586 5584 5582 5580 5576 5572 5570 5567 5564 5561 5559 5556 5553 5550 5546 5547 5547 5546 5544 5542 5538 5535 5532 5528 5524 5519 5515 5511 5507 5503
5610 5608 5606 5604 5601 5600 5598 5595 5593 5590 5589 5586 5582 5579 5576 5574 5572 5570 5565 5561 5558 5555 5552 5549 5545 5541 5539 5533 5532 5534 5533 5530 5528 5525 5522 5518 5514 5510 5506 5502 5499 5495 5492 5489
5598 5597 5595 5593 5591 5588 5587 5586 5583 5580 5577 5574 5572 5569 5566 5563 5562 5559 5555 5551 5547 5541 5539 5537 5532 5525 5521 5518 5520 5520 5517 5514 5511 5508 5504 5501 5498 5495 5492 5488 5485 5481 5478 5475
5586 5585 5584 5582 5579 5577 5576 5574 5572 5569 5566 5564 5561 5559 5556 5553 5550 5546 5541 5538 5535 5528 5526 5521 5514 5510 5506 5508 5507 5505 5502 5498 5495 5492 5489 5485 5483 5480 5477 5474 5471 5469 5467 5465
5573 5572 5571 5571 5570 5567 5564 5563 5561 5558 5556 5554 5551 5549 5546 5543 5540 5537 5531 5524 5519 5515 5513 5504 5500 5497 5495 5496 5494 5490 5487 5483 5480 5477 5474 5472 5470 5467 5465 5463 5461 5459 5458 5456
5562 5561 5560 5558 5557 5556 5554 5553 5551 5549 5546 5544 5541 5537 5534 5531 5527 5523 5519 5514 5508 5505 5501 5494 5490 5487 5486 5485 5481 5477 5473 5469 5465 5464 5462 5460 5458 5456 5454 5452 5451 5450 5449 5448
5551 5551 5550 5547 5546 5545 5545 5543 5540 5537 5534 5531 5528 5526 5523 5520 5515 5511 5508 5503 5498 5493 5490 5486 5482 5478 5476 5473 5468 5464 5461 5458 5455 5452 5450 5448 5447 5445 5444 5443 5442 5441 5440 5439
5543 5542 5540 5539 5538 5537 5535 5532 5529 5526 5523 5520 5517 5514 5511 5508 5504 5500 5496 5492 5488 5483 5479 5475 5471 5468 5465 5461 5457 5453 5450 5446 5444 5441 5440 5438 5437 5436 5435 5434 5434 5433 5431 5431